LFKBLFKF

Guest
Details From LFKB - Bastia Poretta
To LFKF - Figari Sud Corse
Flight Number -
Tags generated
Created
Modified
Stats Distance 65 nm / 121 km
Max Altitude 900 ft / 274 m
Waypoints 3
Social Downloads 0
Likes 0
Share VATSIM

Download

Looking for another format? Having issues loading an existing format? Contact us
Advertisement - Login to hide

Notes

Basic altitude profile: - Ascent Rate: 750ft/min - Ascent Speed: 90kts - Cruise Altitude: 13000ft - Cruise Speed: 130kts - Descent Rate: 750ft/min - Descent Speed: 130kts Options: - Use NATs: yes - Use PACOTS: yes - Use low airways: yes - Use high airways: yes

Route

LFKB DIKEL LFKF

ID Type Via Altitude (ft/m) Position (lat/lon) Dist (leg/tot) Name
O LFKB APT - 0 / 0 42.55260 / 9.48375 - / 0 nm Bastia Poretta
DIKEL FIX - 900 / 274 41.54810 / 9.11361 62 / 62 nm
O LFKF APT - 0 / 0 41.50230 / 9.09697 2 / 65 nm Figari Sud Corse

Altitude Profile

Advertisement - Login to hide

LFKB

Details ICAO LFKB (BIA)
Name Bastia Poretta
Region France
Timezone Europe/Paris (UTC+2.0)
Stats Elevation 24 ft / 7 m (AMSL)
Location 42.552600° 9.483750°
Runways 1
Magnetic Variation 2.675° E

METAR

LFKB 171400Z AUTO 12006KT 090V160 9999 BKN023 BKN030 BKN036 26/20 Q1015 NOSIG

Decode

TAF

TAF LFKB 170800Z 1709/1809 12010KT CAVOK TX28/1712Z TN17/1803Z BECMG 1717/1720 24004KT

Decode

Departure Runways

ID Width Length Bearing (true/mag) Surface Threshold Overrun Markings Lighting
16 148 ft / 45 m 8,273 ft / 2,522 m 162.83° / 160.16° ASPHALT 0 ft / 0 m 102 ft / 31 m APP CENTERLINE EDGE THRESHOLD TDZ REIL-OMNI
34 148 ft / 45 m 8,273 ft / 2,522 m 342.84° / 340.16° ASPHALT 0 ft / 0 m 0 ft / 0 m PREC-APP CENTERLINE EDGE THRESHOLD TDZ REIL-OMNI

LFKF

Details ICAO LFKF (FSC)
Name Figari Sud Corse
Region France
Timezone Europe/Paris (UTC+2.0)
Stats Elevation 86 ft / 26 m (AMSL)
Location 41.502300° 9.096970°
Runways 1
Magnetic Variation 2.565° E

METAR

LFKF 171400Z AUTO 24012KT 220V280 CAVOK 32/10 Q1014 NOSIG

Decode

TAF

TAF LFKF 170800Z 1709/1809 24008KT CAVOK BECMG 1717/1720 04004KT TEMPO 1801/1806 BKN010

Decode

Destination Runways

ID Width Length Bearing (true/mag) Surface Threshold Overrun Markings Lighting
05 148 ft / 45 m 8,144 ft / 2,482 m 47.43° / 44.87° CONCRETE 0 ft / 0 m 0 ft / 0 m APP CENTERLINE EDGE THRESHOLD
23 148 ft / 45 m 8,144 ft / 2,482 m 227.45° / 224.88° CONCRETE 0 ft / 0 m 0 ft / 0 m PREC-APP CENTERLINE EDGE THRESHOLD

Approach Navaids

Runway Type Ident Frequency Range Bearing (true/mag) Slope Elevation
23 LOC-ILS GR 110.50 MHz 27 nm / 50 km 227.44° / 224.88 ° - 86 ft / 26 m (AMSL)
23 OM OM - - 227.43° / 224.87 ° - 87 ft / 27 m (AMSL)
23 GS GR 110.50 MHz 27 nm / 50 km 227.44° / 224.88 ° 3.50° 86 ft / 26 m (AMSL)
23 DME GR 110.50 MHz 18 nm / 33 km - - 131 ft / 40 m (AMSL)

Popular Alternatives